Location: Arbon
(43.0005°N, 0.7472°E)
Time: 23:25:44
(UTC+00:00)

Courier 1B Rocket - Pass Details

Date: 28 November 2020
Orbit: 920 x 1202 km, 28.2° (Epoch: 22 January)

Event Time Altitude Azimuth Distance (km) Brightness Sun altitude
Rises 06:42:49 0° 236° (SW) 4,090 7.9 -4.5°
Reaches altitude 10° 06:46:16 10° 223° (SW) 3,115 7.5 -4.0°
Maximum altitude 06:52:13 24° 173° (S) 2,187 7.3 -3.0°
Drops below altitude 10° 06:57:59 10° 122° (ESE) 3,013 9.7 -2.1°
Sets 07:01:16 0° 110° (ESE) 3,928 10.7 -1.5°
